Weather History for Dickinson, ND

Change the Weather History Date:

Wednesday, April 3, 2013

  Actual Average Record
Temperature  
Mean Temperature 47 °F 37 °F  
Max Temperature 68 °F 50 °F 74 °F (1988)
Min Temperature 25 °F 25 °F -4 °F (1954)
Degree Days  
Heating Degree Days 18 28  
Month to date heating degree days 85 85  
Since 1 July heating degree days 7269 7465  
Cooling Degree Days 0 0  
Month to date cooling degree days 0 0  
Year to date cooling degree days 0 0  
Moisture  
Dew Point 26 °F    
Average Humidity 52    
Maximum Humidity 75    
Minimum Humidity 29    
Precipitation  
Precipitation 0.00 in 0.03 in 0.45 in (1978)
Month to date precipitation 0.00 0.10  
Year to date precipitation 0.43 1.42  
Sea Level Pressure  
Sea Level Pressure 30.00 in    
Wind  
Wind Speed 16 mph (West)    
Max Wind Speed 30 mph    
Max Gust Speed 39 mph    
Visibility 10 miles    
Events      
T = Trace of Precipitation, MM = Missing Value Source: NWS Daily Summary

Daily Weather History Graph

Daily Weather History Graph

Search for Another Location

Airport:

Trip Planner

Search our weather history database for the weather conditions in past years. The results will help you decide how hot, cold, wet, or windy it might be!

Date:

Astronomy

Apr. 03, 2013 Rise Set
Actual Time 6:25 AM MDT 7:23 PM MDT
Civil Twilight 5:55 AM MDT 7:54 PM MDT
Nautical Twilight 5:18 AM MDT 8:31 PM MDT
Astronomical Twilight 4:39 AM MDT 9:10 PM MDT
Moon 2:32 AM MDT (4/3) 12:15 PM MDT (4/3)
Length of Visible Light 13h 59m
Length of Day
12h 57m
Last Quarter, 44% of the Moon is Illuminated
Apr 3
Last Quarter
Apr 10
New
Apr 18
First Quarter
Apr 25
Full
May 2
Last Quarter

Hourly Weather History & Observations

Time (MDT) Temp. Windchill Dew Point Humidity Pressure Visibility Wind Dir Wind Speed Gust Speed Precip Events Conditions
12:56 AM 33.1 °F 21.2 °F 24.1 °F 70% 30.03 in 10.0 mi South 20.7 mph 28.8 mph N/A   Clear
1:56 AM 32.0 °F 20.5 °F 23.0 °F 69% 30.01 in 10.0 mi South 18.4 mph - N/A   Clear
2:56 AM 32.0 °F 21.2 °F 23.0 °F 69% 29.98 in 10.0 mi South 16.1 mph 24.2 mph N/A   Clear
3:56 AM 32.0 °F 21.6 °F 23.0 °F 69% 29.95 in 10.0 mi South 15.0 mph - N/A   Clear
4:56 AM 32.0 °F 20.8 °F 23.0 °F 69% 29.93 in 10.0 mi South 17.3 mph - N/A   Clear
5:56 AM 32.0 °F 20.8 °F 23.0 °F 69% 29.91 in 10.0 mi South 17.3 mph - N/A   Clear
6:56 AM 34.0 °F 22.7 °F 24.1 °F 67% 29.91 in 10.0 mi South 19.6 mph 27.6 mph N/A   Mostly Cloudy
7:56 AM 37.0 °F 27.0 °F 25.0 °F 62% 29.89 in 10.0 mi South 18.4 mph - N/A   Clear
8:56 AM 42.1 °F 34.2 °F 25.0 °F 51% 29.89 in 10.0 mi SSW 16.1 mph - N/A   Scattered Clouds
9:56 AM 50.0 °F - 27.0 °F 41% 29.88 in 10.0 mi WSW 15.0 mph 23.0 mph N/A   Scattered Clouds
10:56 AM 57.9 °F - 30.0 °F 35% 29.87 in 10.0 mi West 17.3 mph - N/A   Scattered Clouds
11:56 AM 59.0 °F - 33.1 °F 38% 29.87 in 10.0 mi West 17.3 mph 25.3 mph N/A   Partly Cloudy
12:56 PM 66.0 °F - 34.0 °F 30% 29.87 in 10.0 mi WNW 18.4 mph 31.1 mph N/A   Clear
1:56 PM 66.0 °F - 35.1 °F 32% 29.88 in 10.0 mi NW 23.0 mph 32.2 mph N/A   Clear
2:56 PM 57.0 °F - 35.1 °F 44% 29.95 in 10.0 mi NNW 28.8 mph 36.8 mph N/A   Clear
3:56 PM 52.0 °F - 33.1 °F 49% 30.02 in 10.0 mi North 20.7 mph 33.4 mph N/A   Clear
4:56 PM 52.0 °F - 28.0 °F 40% 30.05 in 10.0 mi North 20.7 mph 29.9 mph N/A   Clear
5:56 PM 50.0 °F - 26.1 °F 39% 30.08 in 10.0 mi North 13.8 mph - N/A   Mostly Cloudy
6:56 PM 44.1 °F 37.1 °F 25.0 °F 47% 30.13 in 10.0 mi NNW 15.0 mph - N/A   Overcast
7:56 PM 39.9 °F 31.8 °F 19.9 °F 45% 30.15 in 10.0 mi NNW 15.0 mph - N/A   Overcast
8:56 PM 36.0 °F 30.3 °F 19.9 °F 52% 30.17 in 10.0 mi North 6.9 mph - N/A   Mostly Cloudy
9:56 PM 34.0 °F 26.6 °F 21.0 °F 59% 30.16 in 10.0 mi NNW 9.2 mph - N/A   Clear
10:56 PM 30.0 °F 22.4 °F 21.0 °F 69% 30.16 in 10.0 mi NW 8.1 mph - N/A   Clear
11:56 PM 28.0 °F 22.8 °F 21.0 °F 75% 30.17 in 10.0 mi NW 4.6 mph - N/A   Clear